Regional Weather Roundup
Issued by NWS Charleston, WV

Home | Current Version | Previous Version | Text Only | Print | Product List | Glossary On
Versions: 1 2 3 4 5 6 7 8 9 10 11 12 13 14 15 16 17 18 19 20 21 22 23 24 25 26 27 28 29 30 31 32 33 34 35 36 37 38 39 40 41 42 43 44 45 46 47 48 49 50
000
ASUS41 KRLX 051010
RWRRLX
West Virginia Regional Weather Roundup
National Weather Service Charleston WV
600 AM EDT WED AUG 05 2015

Note: "fair" indicates few or no clouds below 12,000 feet with no
significant weather and/or obstructions to visibility.

WVZ003-051100-
Northern Panhandle of West Virginia

CITY           SKY/WX    TMP DP  RH WIND       PRES   REMARKS
WHEELING       CLEAR     62  58  86 CALM      30.02R
$$

WVZ009-051100-
Northwest West Virginia

CITY           SKY/WX    TMP DP  RH WIND       PRES   REMARKS
PARKERSBURG    CLOUDY    63  60  90 CALM      30.05R
$$

WVZ006-051100-
Western West Virginia

CITY           SKY/WX    TMP DP  RH WIND       PRES   REMARKS
HUNTINGTON     CLOUDY    67  66  97 SW3       30.03S
$$

WVZ015-051100-
West Central West Virginia

CITY           SKY/WX    TMP DP  RH WIND       PRES   REMARKS
CHARLESTON     CLOUDY    70  66  87 W5        30.03S
$$

WVZ022-031-051100-
North Central West Virginia

CITY           SKY/WX    TMP DP  RH WIND       PRES   REMARKS
CLARKSBURG     CLOUDY    64  63  96 CALM      30.02R
MORGANTOWN     CLOUDY    66  59  78 CALM      30.03R
$$

WVZ025-035-042-045-051100-
Southern West Virginia

CITY           SKY/WX    TMP DP  RH WIND       PRES   REMARKS
BECKLEY        CLOUDY    66  63  90 SW5       30.10S
LOGAN          CLOUDY    66  66 100 CALM      30.04R FOG
BLUEFIELD      CLOUDY    67  61  81 W5        30.13R
LEWISBURG      CLOUDY    69  64  81 W3        30.08S
$$

WVZ047-051100-
Northern Mountains of West Virginia

CITY           SKY/WX    TMP DP  RH WIND       PRES   REMARKS
ELKINS         CLOUDY    62  60  93 CALM      30.05S FOG
$$

WVZ052-051100-
Eastern Panhandle of West Virginia

CITY           SKY/WX    TMP DP  RH WIND       PRES   REMARKS
MARTINSBURG    CLOUDY    64  63  96 CALM      29.97R
PETERSBURG     CLOUDY    64  63  96 CALM      30.01R FOG
$$



USA.gov is the U.S. government's official web portal to all federal, state and local government web resources and services.